Year,Month,Day,Hour,Minute,Value (Times are PST for temperature in C)
2019,04,17,00,00,7.00
2019,04,17,00,01,7.00
2019,04,17,00,02,6.90
2019,04,17,00,03,6.90
2019,04,17,00,04,6.90
2019,04,17,00,05,6.80
2019,04,17,00,06,6.80
2019,04,17,00,07,6.80
2019,04,17,00,08,6.70
2019,04,17,00,09,6.70
2019,04,17,00,10,6.70
2019,04,17,00,11,6.60
2019,04,17,00,12,6.60
2019,04,17,00,13,6.50
2019,04,17,00,14,6.50
2019,04,17,00,15,6.40
2019,04,17,00,16,6.40
2019,04,17,00,17,6.30
2019,04,17,00,18,6.30
2019,04,17,00,19,6.30
2019,04,17,00,20,6.30
2019,04,17,00,21,6.30
2019,04,17,00,22,6.30
2019,04,17,00,23,6.30
2019,04,17,00,24,6.30
2019,04,17,00,25,6.30
2019,04,17,00,26,6.20
2019,04,17,00,27,6.20
2019,04,17,00,28,6.20
2019,04,17,00,29,6.20
2019,04,17,00,30,6.20
2019,04,17,00,31,6.10
2019,04,17,00,32,6.10
2019,04,17,00,33,6.10
2019,04,17,00,34,6.10
2019,04,17,00,35,6.10
2019,04,17,00,36,6.00
2019,04,17,00,37,6.00
2019,04,17,00,38,6.00
2019,04,17,00,39,5.90
2019,04,17,00,40,5.90
2019,04,17,00,41,5.90
2019,04,17,00,42,5.90
2019,04,17,00,43,5.90
2019,04,17,00,44,5.90
2019,04,17,00,45,5.90
2019,04,17,00,46,5.90
2019,04,17,00,47,5.90
2019,04,17,00,48,5.90
2019,04,17,00,49,5.80
2019,04,17,00,50,5.80
2019,04,17,00,51,5.80
2019,04,17,00,52,5.80
2019,04,17,00,53,5.80
2019,04,17,00,54,5.70
2019,04,17,00,55,5.70
2019,04,17,00,56,5.70
2019,04,17,00,57,5.60
2019,04,17,00,58,5.60
2019,04,17,00,59,5.60
2019,04,17,01,00,5.50
2019,04,17,01,01,5.50
2019,04,17,01,02,5.50
2019,04,17,01,03,5.40
2019,04,17,01,04,5.40
2019,04,17,01,05,5.30
2019,04,17,01,06,5.30
2019,04,17,01,07,5.20
2019,04,17,01,08,5.20
2019,04,17,01,09,5.20
2019,04,17,01,10,5.10
2019,04,17,01,11,5.10
2019,04,17,01,12,5.10
2019,04,17,01,13,5.10
2019,04,17,01,14,5.10
2019,04,17,01,15,5.20
2019,04,17,01,16,5.10
2019,04,17,01,17,5.10
2019,04,17,01,18,5.10
2019,04,17,01,19,5.10
2019,04,17,01,20,5.10
2019,04,17,01,21,5.10
2019,04,17,01,22,5.10
2019,04,17,01,23,5.10
2019,04,17,01,24,5.00
2019,04,17,01,25,5.00
2019,04,17,01,26,5.00
2019,04,17,01,27,5.00
2019,04,17,01,28,5.00
2019,04,17,01,29,4.90
2019,04,17,01,30,4.90
2019,04,17,01,31,4.90
2019,04,17,01,32,4.90
2019,04,17,01,33,4.90
2019,04,17,01,34,4.90
2019,04,17,01,35,4.80
2019,04,17,01,36,4.80
2019,04,17,01,37,4.80
2019,04,17,01,38,4.80
2019,04,17,01,39,4.80
2019,04,17,01,40,4.80
2019,04,17,01,41,4.80
2019,04,17,01,42,4.80
2019,04,17,01,43,4.80
2019,04,17,01,44,4.80
2019,04,17,01,45,4.80
2019,04,17,01,46,4.80
2019,04,17,01,47,4.80
2019,04,17,01,48,4.80
2019,04,17,01,49,4.80
2019,04,17,01,50,4.80
2019,04,17,01,51,4.80
2019,04,17,01,52,4.80
2019,04,17,01,53,4.80
2019,04,17,01,54,4.80
2019,04,17,01,55,4.80
2019,04,17,01,56,4.80
2019,04,17,01,57,4.80
2019,04,17,01,58,4.70
2019,04,17,01,59,4.70
2019,04,17,02,00,4.70
2019,04,17,02,01,4.70
2019,04,17,02,02,4.60
2019,04,17,02,03,4.60
2019,04,17,02,04,4.60
2019,04,17,02,05,4.60
2019,04,17,02,06,4.60
2019,04,17,02,07,4.60
2019,04,17,02,08,4.60
2019,04,17,02,09,4.60
2019,04,17,02,10,4.60
2019,04,17,02,11,4.60
2019,04,17,02,12,4.60
2019,04,17,02,13,4.60
2019,04,17,02,14,4.60
2019,04,17,02,15,4.60
2019,04,17,02,16,4.60
2019,04,17,02,17,4.60
2019,04,17,02,18,4.60
2019,04,17,02,19,4.60
2019,04,17,02,20,4.50
2019,04,17,02,21,4.60
2019,04,17,02,22,4.50
2019,04,17,02,23,4.50
2019,04,17,02,24,4.50
2019,04,17,02,25,4.50
2019,04,17,02,26,4.50
2019,04,17,02,27,4.50
2019,04,17,02,28,4.50
2019,04,17,02,29,4.60
2019,04,17,02,30,4.60
2019,04,17,02,31,4.60
2019,04,17,02,32,4.60
2019,04,17,02,33,4.60
2019,04,17,02,34,4.60
2019,04,17,02,35,4.60
2019,04,17,02,36,4.60
2019,04,17,02,37,4.60
2019,04,17,02,38,4.70
2019,04,17,02,39,4.60
2019,04,17,02,40,4.70
2019,04,17,02,41,4.70
2019,04,17,02,42,4.70
2019,04,17,02,43,4.70
2019,04,17,02,44,4.70
2019,04,17,02,45,4.70
2019,04,17,02,46,4.70
2019,04,17,02,47,4.70
2019,04,17,02,48,4.70
2019,04,17,02,49,4.70
2019,04,17,02,50,4.70
2019,04,17,02,51,4.70
2019,04,17,02,52,4.70
2019,04,17,02,53,4.70
2019,04,17,02,54,4.70
2019,04,17,02,55,4.70
2019,04,17,02,56,4.70
2019,04,17,02,57,4.70
2019,04,17,02,58,4.70
2019,04,17,02,59,4.70
2019,04,17,03,00,4.70
2019,04,17,03,01,4.70
2019,04,17,03,02,4.70
2019,04,17,03,03,4.70
2019,04,17,03,04,4.70
2019,04,17,03,05,4.70
2019,04,17,03,06,4.70
2019,04,17,03,07,4.70
2019,04,17,03,08,4.70
2019,04,17,03,09,4.70
2019,04,17,03,10,4.70
2019,04,17,03,11,4.70
2019,04,17,03,12,4.70
2019,04,17,03,13,4.70
2019,04,17,03,14,4.80
2019,04,17,03,15,4.80
2019,04,17,03,16,4.80
2019,04,17,03,17,4.80
2019,04,17,03,18,4.80
2019,04,17,03,19,4.80
2019,04,17,03,20,4.80
2019,04,17,03,21,4.80
2019,04,17,03,22,4.80
2019,04,17,03,23,4.80
2019,04,17,03,24,4.90
2019,04,17,03,25,4.90
2019,04,17,03,26,4.90
2019,04,17,03,27,4.90
2019,04,17,03,28,4.90
2019,04,17,03,29,4.90
2019,04,17,03,30,4.90
2019,04,17,03,31,4.90
2019,04,17,03,32,4.90
2019,04,17,03,33,5.00
2019,04,17,03,34,5.00
2019,04,17,03,35,5.00
2019,04,17,03,36,5.00
2019,04,17,03,37,5.00
2019,04,17,03,38,5.00
2019,04,17,03,39,5.00
2019,04,17,03,40,5.00
2019,04,17,03,41,5.00
2019,04,17,03,42,5.00
2019,04,17,03,43,5.00
2019,04,17,03,44,5.00
2019,04,17,03,45,5.00
2019,04,17,03,46,5.00
2019,04,17,03,47,5.00
2019,04,17,03,48,5.00
2019,04,17,03,49,5.00
2019,04,17,03,50,5.00
2019,04,17,03,51,5.00
2019,04,17,03,52,5.00
2019,04,17,03,53,5.00
2019,04,17,03,54,5.00
2019,04,17,03,55,5.00
2019,04,17,03,56,5.00
2019,04,17,03,57,5.00
2019,04,17,03,58,5.00
2019,04,17,03,59,5.00
2019,04,17,04,00,5.00
2019,04,17,04,01,5.00
2019,04,17,04,02,5.00
2019,04,17,04,03,5.00
2019,04,17,04,04,5.10
2019,04,17,04,05,5.10
2019,04,17,04,06,5.10
2019,04,17,04,07,5.10
2019,04,17,04,08,5.10
2019,04,17,04,09,5.10
2019,04,17,04,10,5.20
2019,04,17,04,11,5.20
2019,04,17,04,12,5.20
2019,04,17,04,13,5.20
2019,04,17,04,14,5.20
2019,04,17,04,15,5.20
2019,04,17,04,16,5.20
2019,04,17,04,17,5.20
2019,04,17,04,18,5.20
2019,04,17,04,19,5.20
2019,04,17,04,20,5.30
2019,04,17,04,21,5.30
2019,04,17,04,22,5.30
2019,04,17,04,23,5.30
2019,04,17,04,24,5.30
2019,04,17,04,25,5.30
2019,04,17,04,26,5.30
2019,04,17,04,27,5.30
2019,04,17,04,28,5.30
2019,04,17,04,29,5.30
2019,04,17,04,30,5.30
2019,04,17,04,31,5.30
2019,04,17,04,32,5.30
2019,04,17,04,33,5.30
2019,04,17,04,34,5.30
2019,04,17,04,35,5.30
2019,04,17,04,36,5.30
2019,04,17,04,37,5.30
2019,04,17,04,38,5.30
2019,04,17,04,39,5.30
2019,04,17,04,40,5.20
2019,04,17,04,41,5.20
2019,04,17,04,42,5.20
2019,04,17,04,43,5.20
2019,04,17,04,44,5.20
2019,04,17,04,45,5.20
2019,04,17,04,46,5.20
2019,04,17,04,47,5.10
2019,04,17,04,48,5.10
2019,04,17,04,49,5.10
2019,04,17,04,50,5.10
2019,04,17,04,51,5.10
2019,04,17,04,52,5.10
2019,04,17,04,53,5.10
2019,04,17,04,54,5.10
2019,04,17,04,55,5.10
2019,04,17,04,56,5.00
2019,04,17,04,57,5.00
2019,04,17,04,58,5.00
2019,04,17,04,59,5.00
2019,04,17,05,00,5.00
2019,04,17,05,01,5.00
2019,04,17,05,02,4.90
2019,04,17,05,03,4.90
2019,04,17,05,04,4.90
2019,04,17,05,05,4.90
2019,04,17,05,06,4.90
2019,04,17,05,07,4.80
2019,04,17,05,08,4.80
2019,04,17,05,09,4.80
2019,04,17,05,10,4.80
2019,04,17,05,11,4.80
2019,04,17,05,12,4.70
2019,04,17,05,13,4.70
2019,04,17,05,14,4.70
2019,04,17,05,15,4.70
2019,04,17,05,16,4.70
2019,04,17,05,17,4.70
2019,04,17,05,18,4.60
2019,04,17,05,19,4.60
2019,04,17,05,20,4.60
2019,04,17,05,21,4.60
2019,04,17,05,22,4.50
2019,04,17,05,23,4.50
2019,04,17,05,24,4.50
2019,04,17,05,25,4.40
2019,04,17,05,26,4.40
2019,04,17,05,27,4.40
2019,04,17,05,28,4.40
2019,04,17,05,29,4.40
2019,04,17,05,30,4.30
2019,04,17,05,31,4.30
2019,04,17,05,32,4.30
2019,04,17,05,33,4.30
2019,04,17,05,34,4.30
2019,04,17,05,35,4.30
2019,04,17,05,36,4.20
2019,04,17,05,37,4.20
2019,04,17,05,38,4.20
2019,04,17,05,39,4.10
2019,04,17,05,40,4.10
2019,04,17,05,41,4.10
2019,04,17,05,42,4.10
2019,04,17,05,43,4.10
2019,04,17,05,44,4.00
2019,04,17,05,45,4.00
2019,04,17,05,46,3.90
2019,04,17,05,47,3.90
2019,04,17,05,48,3.90
2019,04,17,05,49,3.80
2019,04,17,05,50,3.80
2019,04,17,05,51,3.80
2019,04,17,05,52,3.80
2019,04,17,05,53,3.70
2019,04,17,05,54,3.70
2019,04,17,05,55,3.70
2019,04,17,05,56,3.70
2019,04,17,05,57,3.70
2019,04,17,05,58,3.70
2019,04,17,05,59,3.60
2019,04,17,06,00,3.60
2019,04,17,06,01,3.60
2019,04,17,06,02,3.60
2019,04,17,06,03,3.50
2019,04,17,06,04,3.50
2019,04,17,06,05,3.50
2019,04,17,06,06,3.50
2019,04,17,06,07,3.50
2019,04,17,06,08,3.50
2019,04,17,06,09,3.40
2019,04,17,06,10,3.40
2019,04,17,06,11,3.40
2019,04,17,06,12,3.40
2019,04,17,06,13,3.30
2019,04,17,06,14,3.30
2019,04,17,06,15,3.30
2019,04,17,06,16,3.30
2019,04,17,06,17,3.30
2019,04,17,06,18,3.30
2019,04,17,06,19,3.30
2019,04,17,06,20,3.30
2019,04,17,06,21,3.40
2019,04,17,06,22,3.40
2019,04,17,06,23,3.40
2019,04,17,06,24,3.40
2019,04,17,06,25,3.40
2019,04,17,06,26,3.40
2019,04,17,06,27,3.40
2019,04,17,06,28,3.40
2019,04,17,06,29,3.40
2019,04,17,06,30,3.40
2019,04,17,06,31,3.40
2019,04,17,06,32,3.40
2019,04,17,06,33,3.30
2019,04,17,06,34,3.30
2019,04,17,06,35,3.30
2019,04,17,06,36,3.30
2019,04,17,06,37,3.30
2019,04,17,06,38,3.30
2019,04,17,06,39,3.30
2019,04,17,06,40,3.30
2019,04,17,06,41,3.40
2019,04,17,06,42,3.40
2019,04,17,06,43,3.40
2019,04,17,06,44,3.40
2019,04,17,06,45,3.40
2019,04,17,06,46,3.40
2019,04,17,06,47,3.40
2019,04,17,06,48,3.40
2019,04,17,06,49,3.30
2019,04,17,06,50,3.30
2019,04,17,06,51,3.30
2019,04,17,06,52,3.30
2019,04,17,06,53,3.30
2019,04,17,06,54,3.30
2019,04,17,06,55,3.30
2019,04,17,06,56,3.30
2019,04,17,06,57,3.30
2019,04,17,06,58,3.30
2019,04,17,06,59,3.30
2019,04,17,07,00,3.30
2019,04,17,07,01,3.30
2019,04,17,07,02,3.30
2019,04,17,07,03,3.20
2019,04,17,07,04,3.30
2019,04,17,07,05,3.30
2019,04,17,07,06,3.30
2019,04,17,07,07,3.30
2019,04,17,07,08,3.30
2019,04,17,07,09,3.30
2019,04,17,07,10,3.40
2019,04,17,07,11,3.40
2019,04,17,07,12,3.40
2019,04,17,07,13,3.40
2019,04,17,07,14,3.40
2019,04,17,07,15,3.40
2019,04,17,07,16,3.50
2019,04,17,07,17,3.50
2019,04,17,07,18,3.50
2019,04,17,07,19,3.50
2019,04,17,07,20,3.50
2019,04,17,07,21,3.60
2019,04,17,07,22,3.60
2019,04,17,07,23,3.60
2019,04,17,07,24,3.70
2019,04,17,07,25,3.70
2019,04,17,07,26,3.70
2019,04,17,07,27,3.70
2019,04,17,07,28,3.70
2019,04,17,07,29,3.80
2019,04,17,07,30,3.80
2019,04,17,07,31,3.80
2019,04,17,07,32,3.80
2019,04,17,07,33,3.80
2019,04,17,07,34,3.80
2019,04,17,07,35,3.80
2019,04,17,07,36,3.80
2019,04,17,07,37,3.80
2019,04,17,07,38,3.90
2019,04,17,07,39,3.90
2019,04,17,07,40,3.90
2019,04,17,07,41,3.90
2019,04,17,07,42,4.00
2019,04,17,07,43,4.00
2019,04,17,07,44,4.10
2019,04,17,07,45,4.10
2019,04,17,07,46,4.10
2019,04,17,07,47,4.10
2019,04,17,07,48,4.10
2019,04,17,07,49,4.20
2019,04,17,07,50,4.20
2019,04,17,07,51,4.20
2019,04,17,07,52,4.30
2019,04,17,07,53,4.30
2019,04,17,07,54,4.30
2019,04,17,07,55,4.40
2019,04,17,07,56,4.40
2019,04,17,07,57,4.40
2019,04,17,07,58,4.50
2019,04,17,07,59,4.50
2019,04,17,08,00,4.60
2019,04,17,08,01,4.60
2019,04,17,08,02,4.60
2019,04,17,08,03,4.70
2019,04,17,08,04,4.70
2019,04,17,08,05,4.70
2019,04,17,08,06,4.70
2019,04,17,08,07,4.70
2019,04,17,08,08,4.80
2019,04,17,08,09,4.80
2019,04,17,08,10,4.80
2019,04,17,08,11,4.80
2019,04,17,08,12,4.80
2019,04,17,08,13,4.90
2019,04,17,08,14,4.90
2019,04,17,08,15,4.90
2019,04,17,08,16,4.90
2019,04,17,08,17,4.90
2019,04,17,08,18,5.00
2019,04,17,08,19,5.00
2019,04,17,08,20,5.10
2019,04,17,08,21,5.10
2019,04,17,08,22,5.10
2019,04,17,08,23,5.20
2019,04,17,08,24,5.20
2019,04,17,08,25,5.30
2019,04,17,08,26,5.30
2019,04,17,08,27,5.30
2019,04,17,08,28,5.40
2019,04,17,08,29,5.40
2019,04,17,08,30,5.40
2019,04,17,08,31,5.50
2019,04,17,08,32,5.60
2019,04,17,08,33,5.60
2019,04,17,08,34,5.60
2019,04,17,08,35,5.60
2019,04,17,08,36,5.70
2019,04,17,08,37,5.70
2019,04,17,08,38,5.80
2019,04,17,08,39,5.80
2019,04,17,08,40,5.90
2019,04,17,08,41,5.90
2019,04,17,08,42,6.00
2019,04,17,08,43,6.10
2019,04,17,08,44,6.20
2019,04,17,08,45,6.30
2019,04,17,08,46,6.40
2019,04,17,08,47,6.60
2019,04,17,08,48,6.70
2019,04,17,08,49,6.80
2019,04,17,08,50,6.90
2019,04,17,08,51,7.00
2019,04,17,08,52,7.10
2019,04,17,08,53,7.20
2019,04,17,08,54,7.30
2019,04,17,08,55,7.40
2019,04,17,08,56,7.50
2019,04,17,08,57,7.60
2019,04,17,08,58,7.70
2019,04,17,08,59,7.80
2019,04,17,09,00,8.00
2019,04,17,09,01,8.10
2019,04,17,09,02,8.20
2019,04,17,09,03,8.40
2019,04,17,09,04,8.50
2019,04,17,09,05,8.70
2019,04,17,09,06,8.80
2019,04,17,09,07,8.90
2019,04,17,09,08,9.00
2019,04,17,09,09,9.10
2019,04,17,09,10,9.20
2019,04,17,09,11,9.30
2019,04,17,09,12,9.30
2019,04,17,09,13,9.40
2019,04,17,09,14,9.50
2019,04,17,09,15,9.50
2019,04,17,09,16,9.60
2019,04,17,09,17,9.70
2019,04,17,09,18,9.80
2019,04,17,09,19,9.80
2019,04,17,09,20,9.90
2019,04,17,09,21,9.90
2019,04,17,09,22,10.00
2019,04,17,09,23,9.90
2019,04,17,09,24,9.90
2019,04,17,09,25,9.90
2019,04,17,09,26,9.90
2019,04,17,09,27,9.80
2019,04,17,09,28,9.80
2019,04,17,09,29,9.80
2019,04,17,09,30,9.80
2019,04,17,09,31,9.70
2019,04,17,09,32,9.70
2019,04,17,09,33,9.70
2019,04,17,09,34,9.70
2019,04,17,09,35,9.70
2019,04,17,09,36,9.60
2019,04,17,09,37,9.60
2019,04,17,09,38,9.60
2019,04,17,09,39,9.50
2019,04,17,09,40,9.50
2019,04,17,09,41,9.50
2019,04,17,09,42,9.50
2019,04,17,09,43,9.60
2019,04,17,09,44,9.60
2019,04,17,09,45,9.60
2019,04,17,09,46,9.50
2019,04,17,09,47,9.60
2019,04,17,09,48,9.60
2019,04,17,09,49,9.50
2019,04,17,09,50,9.60
2019,04,17,09,51,9.60
2019,04,17,09,52,9.60
2019,04,17,09,53,9.60
2019,04,17,09,54,9.50
2019,04,17,09,55,9.50
2019,04,17,09,56,9.50
2019,04,17,09,57,9.50
2019,04,17,09,58,9.50
2019,04,17,09,59,9.50
2019,04,17,10,00,9.50
2019,04,17,10,01,9.50
2019,04,17,10,02,9.50
2019,04,17,10,03,9.50
2019,04,17,10,04,9.50
2019,04,17,10,05,9.60
2019,04,17,10,06,9.60
2019,04,17,10,07,9.60
2019,04,17,10,08,9.60
2019,04,17,10,09,9.60
2019,04,17,10,10,9.60
2019,04,17,10,11,9.60
2019,04,17,10,12,9.60
2019,04,17,10,13,9.60
2019,04,17,10,14,9.70
2019,04,17,10,15,9.80
2019,04,17,10,16,9.80
2019,04,17,10,17,9.90
2019,04,17,10,18,10.00
2019,04,17,10,19,10.10
2019,04,17,10,20,10.20
2019,04,17,10,21,10.30
2019,04,17,10,22,10.40
2019,04,17,10,23,10.40
2019,04,17,10,24,10.60
2019,04,17,10,25,10.70
2019,04,17,10,26,10.80
2019,04,17,10,27,10.80
2019,04,17,10,28,10.90
2019,04,17,10,29,11.00
2019,04,17,10,30,11.10
2019,04,17,10,31,11.20
2019,04,17,10,32,11.30
2019,04,17,10,33,11.40
2019,04,17,10,34,11.60
2019,04,17,10,35,11.80
2019,04,17,10,36,11.90
2019,04,17,10,37,12.00
2019,04,17,10,38,12.20
2019,04,17,10,39,12.30
2019,04,17,10,40,12.30
2019,04,17,10,41,12.40
2019,04,17,10,42,12.40
2019,04,17,10,43,12.40
2019,04,17,10,44,12.40
2019,04,17,10,45,12.40
2019,04,17,10,46,12.40
2019,04,17,10,47,12.40
2019,04,17,10,48,12.50
2019,04,17,10,49,12.60
2019,04,17,10,50,12.60
2019,04,17,10,51,12.60
2019,04,17,10,52,12.60
2019,04,17,10,53,12.60
2019,04,17,10,54,12.50
2019,04,17,10,55,12.50
2019,04,17,10,56,12.40
2019,04,17,10,57,12.40
2019,04,17,10,58,12.40
2019,04,17,10,59,12.30
2019,04,17,11,00,12.30
2019,04,17,11,01,12.40
2019,04,17,11,02,12.40
2019,04,17,11,03,12.40
2019,04,17,11,04,12.40
2019,04,17,11,05,12.50
2019,04,17,11,06,12.50
2019,04,17,11,07,12.60
2019,04,17,11,08,12.70
2019,04,17,11,09,12.70
2019,04,17,11,10,12.80
2019,04,17,11,11,12.80
2019,04,17,11,12,12.90
2019,04,17,11,13,12.80
2019,04,17,11,14,12.90
2019,04,17,11,15,12.90
2019,04,17,11,16,12.90
2019,04,17,11,17,12.90
2019,04,17,11,18,12.90
2019,04,17,11,19,13.00
2019,04,17,11,20,12.90
2019,04,17,11,21,13.00
2019,04,17,11,22,13.00
2019,04,17,11,23,13.10
2019,04,17,11,24,13.10
2019,04,17,11,25,13.10
2019,04,17,11,26,13.00
2019,04,17,11,27,13.00
2019,04,17,11,28,13.00
2019,04,17,11,29,12.90
2019,04,17,11,30,12.90
2019,04,17,11,31,12.90
2019,04,17,11,32,12.80
2019,04,17,11,33,12.70
2019,04,17,11,34,12.70
2019,04,17,11,35,12.60
2019,04,17,11,36,12.60
2019,04,17,11,37,12.50
2019,04,17,11,38,12.50
2019,04,17,11,39,12.50
2019,04,17,11,40,12.50
2019,04,17,11,41,12.40
2019,04,17,11,42,12.40
2019,04,17,11,43,12.40
2019,04,17,11,44,12.50
2019,04,17,11,45,12.60
2019,04,17,11,46,12.60
2019,04,17,11,47,12.70
2019,04,17,11,48,12.70
2019,04,17,11,49,12.70
2019,04,17,11,50,12.60
2019,04,17,11,51,12.50
2019,04,17,11,52,12.40
2019,04,17,11,53,12.40
2019,04,17,11,54,12.30
2019,04,17,11,55,12.30
2019,04,17,11,56,12.20
2019,04,17,11,57,12.30
2019,04,17,11,58,12.30
2019,04,17,11,59,12.40
2019,04,17,12,00,12.40
2019,04,17,12,01,12.50
2019,04,17,12,02,12.50
2019,04,17,12,03,12.40
2019,04,17,12,04,12.40
2019,04,17,12,05,12.40
2019,04,17,12,06,12.30
2019,04,17,12,07,12.30
2019,04,17,12,08,12.30
2019,04,17,12,09,12.30
2019,04,17,12,10,12.30
2019,04,17,12,11,12.40
2019,04,17,12,12,12.50
2019,04,17,12,13,12.60
2019,04,17,12,14,12.60
2019,04,17,12,15,12.60
2019,04,17,12,16,12.60
2019,04,17,12,17,12.50
2019,04,17,12,18,12.40
2019,04,17,12,19,12.40
2019,04,17,12,20,12.40
2019,04,17,12,21,12.50
2019,04,17,12,22,12.50
2019,04,17,12,23,12.60
2019,04,17,12,24,12.70
2019,04,17,12,25,12.70
2019,04,17,12,26,12.80
2019,04,17,12,27,12.80
2019,04,17,12,28,12.70
2019,04,17,12,29,12.70
2019,04,17,12,30,12.70
2019,04,17,12,31,12.70
2019,04,17,12,32,12.80
2019,04,17,12,33,12.80
2019,04,17,12,34,12.80
2019,04,17,12,35,12.80
2019,04,17,12,36,12.70
2019,04,17,12,37,12.70
2019,04,17,12,38,12.70
2019,04,17,12,39,12.70
2019,04,17,12,40,12.60
2019,04,17,12,41,12.70
2019,04,17,12,42,12.70
2019,04,17,12,43,12.60
2019,04,17,12,44,12.60
2019,04,17,12,45,12.60
2019,04,17,12,46,12.60
2019,04,17,12,47,12.50
2019,04,17,12,48,12.50
2019,04,17,12,49,12.50
2019,04,17,12,50,12.60
2019,04,17,12,51,12.60
2019,04,17,12,52,12.70
2019,04,17,12,53,12.70
2019,04,17,12,54,12.70
2019,04,17,12,55,12.70
2019,04,17,12,56,12.60
2019,04,17,12,57,12.50
2019,04,17,12,58,12.40
2019,04,17,12,59,12.30
2019,04,17,13,00,12.30
2019,04,17,13,01,12.20
2019,04,17,13,02,12.20
2019,04,17,13,03,12.20
2019,04,17,13,04,12.20
2019,04,17,13,05,12.20
2019,04,17,13,06,12.20
2019,04,17,13,07,12.20
2019,04,17,13,08,12.20
2019,04,17,13,09,12.30
2019,04,17,13,10,12.30
2019,04,17,13,11,12.40
2019,04,17,13,12,12.40
2019,04,17,13,13,12.50
2019,04,17,13,14,12.60
2019,04,17,13,15,12.70
2019,04,17,13,16,12.70
2019,04,17,13,17,12.70
2019,04,17,13,18,12.80
2019,04,17,13,19,12.80
2019,04,17,13,20,12.90
2019,04,17,13,21,12.90
2019,04,17,13,22,12.90
2019,04,17,13,23,13.00
2019,04,17,13,24,13.00
2019,04,17,13,25,13.10
2019,04,17,13,26,13.20
2019,04,17,13,27,13.30
2019,04,17,13,28,13.40
2019,04,17,13,29,13.60
2019,04,17,13,30,13.80
2019,04,17,13,31,13.90
2019,04,17,13,32,14.00
2019,04,17,13,33,13.90
2019,04,17,13,34,13.90
2019,04,17,13,35,13.90
2019,04,17,13,36,13.90
2019,04,17,13,37,13.80
2019,04,17,13,38,13.80
2019,04,17,13,39,13.90
2019,04,17,13,40,13.90
2019,04,17,13,41,13.90
2019,04,17,13,42,13.80
2019,04,17,13,43,13.80
2019,04,17,13,44,13.70
2019,04,17,13,45,13.70
2019,04,17,13,46,13.70
2019,04,17,13,47,13.60
2019,04,17,13,48,13.60
2019,04,17,13,49,13.50
2019,04,17,13,50,13.50
2019,04,17,13,51,13.40
2019,04,17,13,52,13.40
2019,04,17,13,53,13.50
2019,04,17,13,54,13.60
2019,04,17,13,55,13.60
2019,04,17,13,56,13.60
2019,04,17,13,57,13.70
2019,04,17,13,58,13.70
2019,04,17,13,59,13.80
2019,04,17,14,00,13.90
2019,04,17,14,01,14.00
2019,04,17,14,02,14.00
2019,04,17,14,03,14.10
2019,04,17,14,04,14.20
2019,04,17,14,05,14.20
2019,04,17,14,06,14.20
2019,04,17,14,07,14.20
2019,04,17,14,08,14.20
2019,04,17,14,09,14.20
2019,04,17,14,10,14.30
2019,04,17,14,11,14.30
2019,04,17,14,12,14.30
2019,04,17,14,13,14.30
2019,04,17,14,14,14.30
2019,04,17,14,15,14.30
2019,04,17,14,16,14.20
2019,04,17,14,17,14.20
2019,04,17,14,18,14.20
2019,04,17,14,19,14.20
2019,04,17,14,20,14.20
2019,04,17,14,21,14.00
2019,04,17,14,22,13.90
2019,04,17,14,23,13.80
2019,04,17,14,24,13.80
2019,04,17,14,25,13.80
2019,04,17,14,26,13.80
2019,04,17,14,27,13.80
2019,04,17,14,28,13.70
2019,04,17,14,29,13.80
2019,04,17,14,30,13.80
2019,04,17,14,31,13.70
2019,04,17,14,32,13.70
2019,04,17,14,33,13.70
2019,04,17,14,34,13.70
2019,04,17,14,35,13.70
2019,04,17,14,36,13.70
2019,04,17,14,37,13.70
2019,04,17,14,38,13.70
2019,04,17,14,39,13.70
2019,04,17,14,40,13.70
2019,04,17,14,41,13.70
2019,04,17,14,42,13.70
2019,04,17,14,43,13.70
2019,04,17,14,44,13.80
2019,04,17,14,45,13.80
2019,04,17,14,46,13.90
2019,04,17,14,47,13.90
2019,04,17,14,48,14.00
2019,04,17,14,49,14.00
2019,04,17,14,50,14.10
2019,04,17,14,51,14.20
2019,04,17,14,52,14.20
2019,04,17,14,53,14.20
2019,04,17,14,54,14.30
2019,04,17,14,55,14.20
2019,04,17,14,56,14.20
2019,04,17,14,57,14.20
2019,04,17,14,58,14.10
2019,04,17,14,59,14.10
2019,04,17,15,00,14.00
2019,04,17,15,01,14.00
2019,04,17,15,02,14.00
2019,04,17,15,03,14.10
2019,04,17,15,04,14.00
2019,04,17,15,05,14.00
2019,04,17,15,06,14.00
2019,04,17,15,07,14.00
2019,04,17,15,08,14.10
2019,04,17,15,09,14.10
2019,04,17,15,10,14.10
2019,04,17,15,11,14.20
2019,04,17,15,12,14.20
2019,04,17,15,13,14.30
2019,04,17,15,14,14.30
2019,04,17,15,15,14.30
2019,04,17,15,16,14.40
2019,04,17,15,17,14.40
2019,04,17,15,18,14.40
2019,04,17,15,19,14.40
2019,04,17,15,20,14.40
2019,04,17,15,21,14.30
2019,04,17,15,22,14.20
2019,04,17,15,23,14.20
2019,04,17,15,24,14.10
2019,04,17,15,25,14.10
2019,04,17,15,26,14.00
2019,04,17,15,27,13.90
2019,04,17,15,28,13.90
2019,04,17,15,29,13.80
2019,04,17,15,30,13.80
2019,04,17,15,31,13.80
2019,04,17,15,32,13.80
2019,04,17,15,33,13.80
2019,04,17,15,34,13.80
2019,04,17,15,35,13.80
2019,04,17,15,36,13.80
2019,04,17,15,37,13.80
2019,04,17,15,38,13.80
2019,04,17,15,39,13.80
2019,04,17,15,40,13.90
2019,04,17,15,41,13.90
2019,04,17,15,42,14.00
2019,04,17,15,43,14.00
2019,04,17,15,44,14.00
2019,04,17,15,45,14.00
2019,04,17,15,46,14.00
2019,04,17,15,47,14.00
2019,04,17,15,48,14.00
2019,04,17,15,49,14.00
2019,04,17,15,50,14.00
2019,04,17,15,51,14.00
2019,04,17,15,52,13.90
2019,04,17,15,53,13.90
2019,04,17,15,54,13.90
2019,04,17,15,55,14.00
2019,04,17,15,56,13.90
2019,04,17,15,57,13.90
2019,04,17,15,58,13.90
2019,04,17,15,59,13.90
2019,04,17,16,00,13.80
2019,04,17,16,01,13.80
2019,04,17,16,02,13.80
2019,04,17,16,03,13.80
2019,04,17,16,04,13.80
2019,04,17,16,05,13.80
2019,04,17,16,06,13.70
2019,04,17,16,07,13.70
2019,04,17,16,08,13.70
2019,04,17,16,09,13.70
2019,04,17,16,10,13.70
2019,04,17,16,11,13.70
2019,04,17,16,12,13.70
2019,04,17,16,13,13.60
2019,04,17,16,14,13.60
2019,04,17,16,15,13.60
2019,04,17,16,16,13.60
2019,04,17,16,17,13.70
2019,04,17,16,18,13.60
2019,04,17,16,19,13.60
2019,04,17,16,20,13.60
2019,04,17,16,21,13.50
2019,04,17,16,22,13.50
2019,04,17,16,23,13.50
2019,04,17,16,24,13.60
2019,04,17,16,25,13.60
2019,04,17,16,26,13.60
2019,04,17,16,27,13.60
2019,04,17,16,28,13.60
2019,04,17,16,29,13.60
2019,04,17,16,30,13.60
2019,04,17,16,31,13.60
2019,04,17,16,32,13.60
2019,04,17,16,33,13.60
2019,04,17,16,34,13.60
2019,04,17,16,35,13.60
2019,04,17,16,36,13.60
2019,04,17,16,37,13.50
2019,04,17,16,38,13.50
2019,04,17,16,39,13.50
2019,04,17,16,40,13.50
2019,04,17,16,41,13.50
2019,04,17,16,42,13.50
2019,04,17,16,43,13.50
2019,04,17,16,44,13.50
2019,04,17,16,45,13.50
2019,04,17,16,46,13.40
2019,04,17,16,47,13.40
2019,04,17,16,48,13.40
2019,04,17,16,49,13.40
2019,04,17,16,50,13.40
2019,04,17,16,51,13.30
2019,04,17,16,52,13.30
2019,04,17,16,53,13.30
2019,04,17,16,54,13.30
2019,04,17,16,55,13.30
2019,04,17,16,56,13.30
2019,04,17,16,57,13.20
2019,04,17,16,58,13.20
2019,04,17,16,59,13.20
2019,04,17,17,00,13.20
2019,04,17,17,01,13.20
2019,04,17,17,02,13.20
2019,04,17,17,03,13.20
2019,04,17,17,04,13.10
2019,04,17,17,05,13.10
2019,04,17,17,06,13.10
2019,04,17,17,07,13.10
2019,04,17,17,08,13.10
2019,04,17,17,09,13.10
2019,04,17,17,10,13.10
2019,04,17,17,11,13.10
2019,04,17,17,12,13.10
2019,04,17,17,13,13.10
2019,04,17,17,14,13.10
2019,04,17,17,15,13.00
2019,04,17,17,16,13.00
2019,04,17,17,17,13.00
2019,04,17,17,18,13.00
2019,04,17,17,19,13.00
2019,04,17,17,20,13.00
2019,04,17,17,21,13.00
2019,04,17,17,22,13.00
2019,04,17,17,23,13.00
2019,04,17,17,24,13.00
2019,04,17,17,25,13.00
2019,04,17,17,26,13.00
2019,04,17,17,27,13.00
2019,04,17,17,28,13.00
2019,04,17,17,29,13.00
2019,04,17,17,30,12.90
2019,04,17,17,31,12.90
2019,04,17,17,32,12.90
2019,04,17,17,33,12.90
2019,04,17,17,34,12.90
2019,04,17,17,35,12.80
2019,04,17,17,36,12.80
2019,04,17,17,37,12.80
2019,04,17,17,38,12.80
2019,04,17,17,39,12.80
2019,04,17,17,40,12.80
2019,04,17,17,41,12.80
2019,04,17,17,42,12.70
2019,04,17,17,43,12.80
2019,04,17,17,44,12.80
2019,04,17,17,45,12.70
2019,04,17,17,46,12.70